User: anonymous
Location: Churchill
(58.7670°N, 94.1670°W)
Time: 23:23:39
(UTC-05:00)
Language:

Cosmos 2142 Rocket - Orbit

View from above orbital plane
View from above orbital plane
View from above satellite
View from above satellite

Ground track
Ground track

The orbit data is extracted from the following two-line orbital elements,

1 21231U 91029B   14243.76241939  .00000036  00000-0  21078-4 0  5497
2 21231 082.9541 144.4877 0034847 197.9070 215.2268 13.75629989173482
Epoch (UTC): 31 August 2014 18:17:53
Eccentricity: 0.0034847
inclination: 82.9541°
perigee height: 954 km
apogee height: 1005 km
right ascension of ascending node: 144.4877°
argument of perigee: 197.9070°
revolutions per day: 13.75629989
mean anomaly at epoch: 215.2268°
orbit number at epoch: 17348

The dashed part of the orbit path shows where the satellite is in the earth's shadow,  

DLR